Regional Weather Roundup
Issued by NWS

Home | Current Version | Previous Version | Graphics & Text | Print | Product List | Glossary On
Versions: 1 2 3 4 5 6 7 8 9 10 11 12 13 14 15 16 17 18 19 20 21 22 23 24 25 26 27 28 29 30 31 32 33 34 35 36 37 38 39 40 41 42 43 44 45 46 47 48 49 50
225
ASUS44 KJAN 300103
RWRMS

MISSISSIPPI HOURLY WEATHER ROUNDUP
NATIONAL WEATHER SERVICE JACKSON MS
800 PM CDT SUN MAR 29 2015

NOTE: "FAIR: INDICATES FEW OR NO CLOUDS BELOW 12,000 FEET WITH NO
SIGNIFICANT WEATHER AND/OR OBSTRUCTIONS TO VISIBILITY.

MSZ001>002-007>008-010>013-018>021-025>028-034>036-300200-
NORTHWEST MISSISSIPPI

CITY           SKY/WX    TMP DP  RH WIND       PRES   REMARKS
CLARKSDALE     FAIR      72  55  56 S7        30.03S
CLEVELAND      FAIR      69  59  69 S12       30.02S
GREENWOOD      CLEAR     67  51  56 S3        30.06R
GREENVILLE     CLEAR     71  57  61 S16       30.02S
OLIVE BRANCH   PTCLDY    61  52  72 SW3       30.06R
OXFORD         FAIR      63  46  55 S8        30.06S
TUNICA         MOCLDY    63  54  72 S3        30.04R
$$

MSZ003>006-009-014>017-022>024-029>033-037>039-300200-
NORTHEAST MISSISSIPPI

CITY           SKY/WX    TMP DP  RH WIND       PRES   REMARKS
COLUMBUS AFB   CLEAR     57  46  67 SE9       30.10S HAZE
CORINTH        FAIR      59  45  58 S5        30.07R
GOLDN TRIANGLE CLEAR     64  46  52 S9        30.10F
STARKVILLE     FAIR      63  50  63 SE5       30.10S
TUPELO         CLEAR     61  45  55 S8        30.08S
$$

MSZ040-058-300200-
CENTRAL MISSISSIPPI

CITY           SKY/WX    TMP DP  RH WIND       PRES   REMARKS
JACKSON INTL   PTCLDY    71  54  54 S12       30.11R
JACKSON HAWKNS PTCLDY    72  54  53 S9        30.11R
MERIDIAN KEY   PTCLDY    67  52  58 S10       30.16R
MERIDIAN NAS   PTCLDY    70  52  52 S5        30.13S
RAYMOND        FAIR      72  68  88 S8        30.10R
VICKSBURG      CLEAR     74  54  49 S9G20     30.08S
$$

MSZ059>079-300200-
SOUTH MISSISSIPPI

CITY           SKY/WX    TMP DP  RH WIND       PRES   REMARKS
BROOKHAVEN     FAIR     N/A N/A N/A S8        30.16R
HATTIESBURG    CLOUDY    66  57  72 S12       30.21S
MCCOMB         CLEAR     69  60  73 S12       30.16S
NATCHEZ        CLEAR     73  54  49 S9G16     30.13S
PINE BELT      CLEAR     64  55  72 S12       30.21R
$$

MSZ080>082-300200-
COASTAL MISSISSIPPI

CITY           SKY/WX    TMP DP  RH WIND       PRES   REMARKS
BILOXI         CLOUDY    67  62  84 SE5       30.23R
PASCAGOULA     CLOUDY    65  59  81 SE8       30.24F
GULFPORT       CLOUDY    67  60  78 SE9       30.22F
$$



USA.gov is the U.S. government's official web portal to all federal, state and local government web resources and services.